Regional Weather Roundup
Issued by NWS

Home | Current Version | Previous Version | Graphics & Text | Print | Product List | Glossary Off
Versions: 1 2 3 4 5 6 7 8 9 10 11 12 13 14 15 16 17 18 19 20 21 22 23 24 25 26 27 28 29 30 31 32 33 34 35 36 37 38 39 40 41 42 43 44 45 46 47 48 49 50

000
ASUS43 KTOP 130159
RWRKS

WEATHER ROUNDUP FOR KANSAS
NATIONAL WEATHER SERVICE GOODLAND KS
800 PM CST FRI FEB 12 2016

NOTE:  "FAIR" INDICATES FEW OR NO CLOUDS BELOW 12,000 FEET WITH NO
SIGNIFICANT WEATHER AND/OR OBSTRUCTIONS TO VISIBILITY.

KSZ001>006-013>018-027>032-041>047-130300-
NORTHWEST KANSAS

CITY           SKY/WX    TMP DP  RH WIND       PRES   REMARKS
GOODLAND       CLOUDY    30  29  96 SE14      30.37R FOG     WCI  19
HAYS           CLOUDY    32  19  59 E15       30.47R WCI  22
HILL CITY      CLOUDY    32  26  78 E12       30.47R WCI  23
RUSSELL        CLOUDY    30  24  78 NE13      30.48S WCI  20
$$

KSZ061>065-074>080-084>089-130300-
SOUTHWEST KANSAS

CITY           SKY/WX    TMP DP  RH WIND       PRES   REMARKS
DODGE CITY     CLOUDY    30  24  78 E7        30.42S
ELKHART          N/A     44  25  47 SE16        N/A
GARDEN CITY    PTCLDY    32  26  78 E15       30.38R WCI  22
GREAT BEND     CLOUDY    34  19  55 E12       30.47S WCI  25
LIBERAL        CLEAR     39  25  56 E15       30.36S WCI  31
$$

KSZ066>073-081>083-090>101-130300-
SOUTHEAST KANSAS

CITY           SKY/WX    TMP DP  RH WIND       PRES   REMARKS
CHANUTE        CLOUDY    35  17  47 N9        30.50R
COFFEYVILLE    CLOUDY    39  23  52 N18       30.49R WCI  30
HUTCHINSON     CLOUDY    33  22  63 NE12      30.49S WCI  24
MEDICINE LODGE   N/A     36  26  67 NE10      30.46R WCI  28
NEWTON         CLOUDY    30  19  64 NE10      30.50S WCI  21
PARSONS        CLOUDY    37  21  52 N9        30.50R
WICHITA INTL   CLOUDY    36  23  59 NE15      30.48S WCI  27
WICHITA JABRA  CLOUDY    34  22  61 N10       30.49S WCI  26
WINFIELD       CLOUDY    38  25  59 NE14      30.48R WCI  30
$$

KSZ007>012-019>026-033>040-048>060-102>105-130300-
NORTHEAST KANSAS

CITY           SKY/WX    TMP DP  RH WIND       PRES   REMARKS
CONCORDIA      CLOUDY    26  15  63 NE12      30.54R WCI  16
EMPORIA        CLOUDY    31  15  52 N10       30.51R WCI  22
LAWRENCE       CLEAR     25   8  48 N12       30.56R WCI  14
MANHATTAN      CLOUDY    29  16  58 NE13      30.55R WCI  19
OLATHE IND     CLEAR     25   9  50 N13       30.54R WCI  14
OLATHE EXE     CLEAR     26   5  40 N16       30.53R WCI  14
SALINA         CLOUDY    32  19  58 NE10      30.54R WCI  24
TOPEKA BILLARD CLEAR     26   5  40 N12       30.57R WCI  16
TOPEKA FORBES  PTCLDY    27  10  49 NE9       30.54R
$$



USA.gov is the U.S. government's official web portal to all federal, state and local government web resources and services.